contact:dominique.lefevre@mio.osupytheas.fr, maurice.libes@osupytheas.fr, didier.mallarino@osupytheas.fr
Project:EMSO http://www.emso-fr.org/EMSO-France
Depth: 2436.0 m
Title:EMSO Ligure Ouest : Data MII capteur AQUADOPP
Date,Latitude,Longitude,X_East,Y_North,Z_Up,Amplitude_X,Amplitude_Y,Amplitude_Z,Batterie,SoundSpeed,Heading,Pitch,Roll,Pressure,TIS,Speed,Direction
, degrees North, degrees East, m.s-1, m.s-1,m.s-1, 1, 1, 1, Volt, m.s-1, degree, degree, degree, dbar, degree_C, m.s-1, degree
2023-07-06T00:04:03,42.805,6.029,0.035,-0.001,-0.008,102.0,104.0,101.0,13.4,1505.2,333.0,-0.8,1.8,2471.549,13.28,0.035,91.6
2023-07-06T00:07:03,42.805,6.029,0.049,-0.035,-0.032,102.0,102.0,100.0,13.4,1505.2,336.3,-0.8,1.8,2471.522,13.28,0.06,125.5
2023-07-06T00:10:03,42.805,6.029,0.004,0.007,0.033,101.0,103.0,100.0,13.3,1505.2,337.3,-0.7,1.8,2471.496,13.28,0.008,29.7
2023-07-06T00:13:03,42.805,6.029,0.039,-0.022,-0.031,102.0,102.0,101.0,13.4,1505.2,331.4,-0.8,1.8,2471.491,13.28,0.044,119.4
2023-07-06T00:16:03,42.805,6.029,0.032,-0.028,-0.027,100.0,102.0,101.0,13.4,1505.2,353.2,-0.8,1.8,2471.484,13.28,0.042,131.2
2023-07-06T00:19:03,42.805,6.029,0.047,-0.004,-0.005,102.0,102.0,100.0,13.3,1505.2,324.2,-0.8,1.8,2471.477,13.29,0.047,94.9
2023-07-06T00:22:03,42.805,6.029,0.042,-0.022,0.006,102.0,102.0,101.0,13.3,1505.2,348.4,-0.8,1.8,2471.477,13.29,0.047,117.6
2023-07-06T00:25:03,42.805,6.029,0.019,-0.02,-0.038,101.0,102.0,100.0,13.3,1505.2,343.7,-0.8,1.8,2471.496,13.29,0.027,136.5
2023-07-06T00:28:03,42.805,6.029,0.035,-0.043,-0.043,102.0,101.0,100.0,13.4,1505.2,346.8,-0.7,1.8,2471.435,13.29,0.055,140.9
2023-07-06T00:31:03,42.805,6.029,0.038,0.02,0.029,101.0,101.0,101.0,13.4,1505.2,326.5,-0.8,1.8,2471.496,13.29,0.042,62.2
2023-07-06T00:34:03,42.805,6.029,0.042,-0.039,-0.019,101.0,103.0,100.0,13.3,1505.2,344.2,-0.8,1.8,2471.459,13.29,0.057,132.9
2023-07-06T00:37:03,42.805,6.029,0.031,-0.004,0.008,102.0,101.0,100.0,13.4,1505.2,329.8,-0.8,1.8,2471.492,13.29,0.031,97.3
2023-07-06T00:40:03,42.805,6.029,0.077,-0.019,-0.014,102.0,102.0,100.0,13.4,1505.2,334.6,-0.8,1.8,2471.458,13.29,0.079,103.9
2023-07-06T00:43:03,42.805,6.029,0.032,0.006,-0.024,102.0,102.0,100.0,13.4,1505.2,327.9,-0.8,1.8,2471.446,13.29,0.032,79.4
2023-07-06T00:46:03,42.805,6.029,0.055,-0.035,-0.006,102.0,102.0,100.0,13.3,1505.2,339.2,-0.8,1.8,2471.437,13.29,0.065,122.5
2023-07-06T00:49:03,42.805,6.029,0.051,-0.007,-0.009,101.0,102.0,101.0,13.3,1505.2,329.3,-0.8,1.8,2471.463,13.29,0.051,97.8
2023-07-06T00:52:03,42.805,6.029,0.052,-0.024,-0.01,100.0,102.0,101.0,13.4,1505.2,336.3,-0.8,1.8,2471.448,13.29,0.057,114.8
2023-07-06T00:55:03,42.805,6.029,0.063,-0.039,-0.044,100.0,102.0,101.0,13.4,1505.2,330.8,-0.8,1.8,2471.429,13.29,0.074,121.8
2023-07-06T00:58:03,42.805,6.029,0.044,-0.01,0.005,101.0,101.0,101.0,13.4,1505.2,340.3,-0.7,1.8,2471.454,13.29,0.045,102.8
2023-07-06T01:04:03,42.805,6.029,0.029,-0.028,-0.013,103.0,103.0,101.0,13.4,1505.2,350.3,-0.8,1.8,2471.472,13.28,0.04,134.0
2023-07-06T01:07:03,42.805,6.029,0.022,0.005,0.008,101.0,102.0,100.0,13.4,1505.2,322.2,-0.8,1.8,2471.513,13.28,0.022,77.2
2023-07-06T01:10:03,42.805,6.029,0.077,-0.014,-0.003,101.0,102.0,101.0,13.4,1505.2,329.8,-0.8,1.8,2471.483,13.28,0.078,100.3
2023-07-06T01:13:03,42.805,6.029,0.033,-0.014,-0.024,102.0,101.0,100.0,13.3,1505.2,333.9,-0.8,1.8,2471.464,13.28,0.035,113.0
2023-07-06T01:16:03,42.805,6.029,0.04,-0.011,-0.012,101.0,101.0,101.0,13.4,1505.2,323.3,-0.8,1.8,2471.438,13.29,0.041,105.4
2023-07-06T01:19:03,42.805,6.029,0.045,0.0,0.01,100.0,101.0,100.0,13.4,1505.2,329.5,-0.7,1.8,2471.457,13.29,0.045,90.0
2023-07-06T01:22:02,42.805,6.029,0.064,-0.014,-0.028,101.0,101.0,101.0,13.4,1505.2,328.5,-0.8,1.8,2471.421,13.29,0.065,102.3
2023-07-06T01:25:03,42.805,6.029,0.057,-0.033,-0.039,101.0,102.0,100.0,13.3,1505.2,331.4,-0.8,1.8,2471.451,13.29,0.065,120.1
2023-07-06T01:28:03,42.805,6.029,0.036,-0.015,-0.014,101.0,102.0,101.0,13.4,1505.2,332.9,-0.8,1.8,2471.444,13.29,0.039,112.6
2023-07-06T01:31:03,42.805,6.029,0.027,-0.02,-0.01,101.0,101.0,101.0,13.3,1505.2,339.7,-0.8,1.8,2471.438,13.29,0.033,126.5
2023-07-06T01:34:03,42.805,6.029,0.018,-0.037,-0.048,101.0,100.0,101.0,13.4,1505.2,335.7,-0.8,1.8,2471.449,13.29,0.041,154.1
2023-07-06T01:37:03,42.805,6.029,0.046,-0.03,-0.031,102.0,101.0,100.0,13.3,1505.2,347.4,-0.8,1.8,2471.41,13.29,0.054,123.1
2023-07-06T01:40:03,42.805,6.029,0.016,0.007,0.018,101.0,102.0,101.0,13.4,1505.2,326.6,-0.8,1.8,2471.368,13.29,0.017,66.4
2023-07-06T01:43:03,42.805,6.029,0.036,0.016,0.032,101.0,101.0,101.0,13.3,1505.2,346.2,-0.7,1.8,2471.42,13.29,0.039,66.0
2023-07-06T01:46:03,42.805,6.029,0.061,0.0,-0.027,101.0,102.0,101.0,13.3,1505.2,322.5,-0.8,1.8,2471.437,13.29,0.06,90.0
2023-07-06T01:49:03,42.805,6.029,0.064,-0.033,-0.003,101.0,102.0,100.0,13.4,1505.2,342.5,-0.8,1.8,2471.408,13.29,0.072,117.3
2023-07-06T01:52:03,42.805,6.029,0.028,-0.004,0.008,101.0,102.0,101.0,13.3,1505.2,353.1,-0.8,1.8,2471.384,13.29,0.028,98.1
2023-07-06T01:55:03,42.805,6.029,0.062,-0.025,0.019,100.0,101.0,101.0,13.4,1505.2,341.5,-0.8,1.8,2471.386,13.29,0.066,112.0
2023-07-06T01:58:03,42.805,6.029,0.056,0.001,0.001,101.0,101.0,101.0,13.4,1505.2,325.3,-0.7,1.8,2471.354,13.29,0.056,89.0
2023-07-06T02:04:03,42.805,6.029,0.049,-0.033,-0.073,101.0,101.0,101.0,13.4,1505.2,341.1,-0.8,1.8,2471.42,13.28,0.059,124.0
2023-07-06T02:07:03,42.805,6.029,0.015,-0.024,-0.015,102.0,100.0,101.0,13.4,1505.2,349.5,-0.8,1.8,2471.362,13.28,0.028,148.0
2023-07-06T02:10:03,42.805,6.029,0.051,-0.04,-0.013,101.0,101.0,101.0,13.4,1505.2,335.0,-0.8,1.9,2471.412,13.28,0.064,128.1
2023-07-06T02:13:03,42.805,6.029,0.042,-0.006,0.006,100.0,103.0,100.0,13.4,1505.2,328.8,-0.8,1.9,2471.418,13.28,0.042,98.1
2023-07-06T02:16:03,42.805,6.029,0.056,-0.018,-0.016,102.0,101.0,101.0,13.4,1505.2,328.5,-0.7,1.8,2471.388,13.28,0.058,107.8
2023-07-06T02:19:03,42.805,6.029,0.035,0.003,-0.011,100.0,102.0,100.0,13.4,1505.2,332.4,-0.8,1.8,2471.416,13.28,0.035,85.1
2023-07-06T02:22:03,42.805,6.029,0.038,-0.046,-0.01,100.0,102.0,102.0,13.3,1505.2,352.0,-0.8,1.8,2471.404,13.29,0.059,140.4
2023-07-06T02:25:03,42.805,6.029,0.031,-0.063,-0.041,101.0,100.0,101.0,13.3,1505.2,351.8,-0.8,1.8,2471.341,13.29,0.07,153.8
2023-07-06T02:28:03,42.805,6.029,0.027,-0.021,0.006,101.0,101.0,100.0,13.4,1505.2,344.8,-0.8,1.8,2471.348,13.29,0.034,127.9
2023-07-06T02:31:03,42.805,6.029,0.045,-0.024,-0.01,102.0,101.0,101.0,13.4,1505.2,344.7,-0.8,1.8,2471.349,13.29,0.051,118.1
2023-07-06T02:34:03,42.805,6.029,0.069,-0.019,-0.017,100.0,102.0,100.0,13.4,1505.2,324.6,-0.7,1.8,2471.349,13.29,0.071,105.4
2023-07-06T02:37:03,42.805,6.029,0.032,-0.03,-0.023,102.0,101.0,101.0,13.4,1505.2,350.5,-0.8,1.8,2471.306,13.29,0.043,133.1
2023-07-06T02:40:03,42.805,6.029,0.062,-0.027,-0.031,102.0,103.0,100.0,13.4,1505.2,327.8,-0.7,1.8,2471.4,13.29,0.067,113.5
2023-07-06T02:43:03,42.805,6.029,0.03,-0.013,-0.028,100.0,102.0,101.0,13.3,1505.2,331.1,-0.7,1.8,2471.34,13.29,0.032,113.4
2023-07-06T02:46:03,42.805,6.029,0.03,-0.036,0.012,100.0,101.0,100.0,13.3,1505.2,353.1,-0.7,1.8,2471.338,13.29,0.046,140.2
2023-07-06T02:49:03,42.805,6.029,0.059,-0.02,-0.022,101.0,102.0,101.0,13.4,1505.2,340.8,-0.8,1.8,2471.374,13.29,0.062,108.7
2023-07-06T02:52:03,42.805,6.029,0.053,-0.011,0.005,101.0,100.0,102.0,13.4,1505.2,329.3,-0.8,1.8,2471.343,13.29,0.054,101.7
2023-07-06T02:55:03,42.805,6.029,0.047,-0.026,-0.013,100.0,103.0,101.0,13.3,1505.2,329.3,-0.8,1.9,2471.353,13.29,0.053,118.9
2023-07-06T02:58:03,42.805,6.029,0.049,-0.043,-0.007,101.0,101.0,100.0,13.4,1505.2,337.2,-0.8,1.8,2471.379,13.29,0.065,131.3
2023-07-06T03:04:03,42.805,6.029,0.031,-0.005,0.01,101.0,101.0,101.0,13.4,1505.2,329.6,-0.8,1.8,2471.405,13.28,0.031,99.2
2023-07-06T03:07:03,42.805,6.029,0.046,-0.014,0.019,101.0,101.0,100.0,13.4,1505.2,338.3,-0.7,1.8,2471.398,13.28,0.048,106.9
2023-07-06T03:10:03,42.805,6.029,0.046,-0.004,0.009,103.0,102.0,100.0,13.3,1505.2,332.9,-0.7,1.8,2471.376,13.28,0.046,95.0
2023-07-06T03:13:03,42.805,6.029,0.047,-0.014,-0.004,102.0,102.0,100.0,13.4,1505.2,339.4,-0.7,1.8,2471.358,13.28,0.049,106.6
2023-07-06T03:16:03,42.805,6.029,0.034,-0.035,-0.024,101.0,102.0,100.0,13.4,1505.2,341.9,-0.8,1.8,2471.348,13.28,0.048,135.8
2023-07-06T03:19:03,42.805,6.029,0.017,-0.015,-0.043,102.0,101.0,101.0,13.4,1505.2,331.1,-0.7,1.8,2471.304,13.29,0.022,131.4
2023-07-06T03:22:03,42.805,6.029,0.049,-0.019,-0.036,102.0,102.0,100.0,13.3,1505.2,323.7,-0.8,1.8,2471.391,13.29,0.052,111.2
2023-07-06T03:25:03,42.805,6.029,0.049,-0.019,0.018,101.0,101.0,101.0,13.3,1505.2,347.7,-0.8,1.8,2471.344,13.29,0.052,111.2
2023-07-06T03:28:03,42.805,6.029,0.037,-0.044,-0.017,101.0,102.0,100.0,13.4,1505.2,352.6,-0.8,1.8,2471.316,13.29,0.057,139.9
2023-07-06T03:31:03,42.805,6.029,0.023,-0.023,0.02,101.0,101.0,101.0,13.4,1505.2,338.2,-0.8,1.8,2471.365,13.29,0.032,135.0
2023-07-06T03:34:03,42.805,6.029,0.043,-0.046,-0.051,102.0,100.0,101.0,13.4,1505.2,334.2,-0.8,1.8,2471.351,13.29,0.062,136.9
2023-07-06T03:37:03,42.805,6.029,0.029,-0.031,-0.018,103.0,102.0,100.0,13.4,1505.2,337.5,-0.8,1.9,2471.345,13.29,0.042,136.9
2023-07-06T03:40:03,42.805,6.029,0.051,-0.015,-0.004,102.0,102.0,101.0,13.4,1505.2,332.9,-0.8,1.8,2471.31,13.29,0.053,106.4
2023-07-06T03:43:03,42.805,6.029,0.036,-0.027,0.01,102.0,100.0,100.0,13.4,1505.2,345.0,-0.8,1.8,2471.323,13.29,0.045,126.9
2023-07-06T03:46:03,42.805,6.029,0.027,-0.024,-0.014,102.0,103.0,100.0,13.4,1505.2,348.4,-0.7,1.8,2471.351,13.29,0.036,131.6
2023-07-06T03:49:03,42.805,6.029,0.037,-0.016,-0.001,102.0,102.0,101.0,13.3,1505.2,327.3,-0.8,1.8,2471.305,13.29,0.04,113.4
2023-07-06T03:52:03,42.805,6.029,0.057,-0.043,-0.009,101.0,101.0,101.0,13.3,1505.2,344.6,-0.8,1.8,2471.3,13.29,0.071,127.0
2023-07-06T03:55:03,42.805,6.029,0.063,-0.008,0.012,102.0,101.0,101.0,13.3,1505.2,331.6,-0.8,1.8,2471.306,13.29,0.063,97.2
2023-07-06T03:58:03,42.805,6.029,0.024,-0.029,0.01,103.0,101.0,101.0,13.4,1505.2,352.4,-0.8,1.8,2471.314,13.29,0.037,140.4
2023-07-06T04:04:03,42.805,6.029,0.029,0.001,0.001,102.0,101.0,101.0,13.4,1505.2,326.3,-0.7,1.8,2471.35,13.28,0.029,88.0
2023-07-06T04:07:03,42.805,6.029,0.056,-0.02,-0.014,102.0,100.0,100.0,13.3,1505.2,335.5,-0.8,1.8,2471.358,13.28,0.059,109.6
2023-07-06T04:10:03,42.805,6.029,0.047,-0.025,0.0,101.0,100.0,101.0,13.4,1505.2,339.7,-0.8,1.8,2471.319,13.28,0.053,118.0
2023-07-06T04:13:03,42.805,6.029,0.042,-0.003,0.005,102.0,100.0,101.0,13.4,1505.2,333.8,-0.8,1.8,2471.333,13.28,0.042,94.1
2023-07-06T04:16:03,42.805,6.029,0.049,-0.038,-0.01,102.0,101.0,100.0,13.4,1505.2,344.8,-0.7,1.8,2471.327,13.28,0.062,127.8
2023-07-06T04:19:03,42.805,6.029,0.043,0.001,0.003,102.0,101.0,101.0,13.4,1505.2,329.7,-0.8,1.8,2471.315,13.29,0.043,88.7
2023-07-06T04:22:03,42.805,6.029,0.038,-0.032,0.019,102.0,101.0,101.0,13.4,1505.2,342.7,-0.8,1.8,2471.337,13.29,0.049,130.1
2023-07-06T04:25:03,42.805,6.029,0.056,-0.018,-0.02,102.0,102.0,101.0,13.3,1505.2,325.0,-0.7,1.8,2471.314,13.29,0.058,107.8
2023-07-06T04:28:03,42.805,6.029,0.037,-0.045,-0.065,101.0,102.0,101.0,13.4,1505.2,337.2,-0.8,1.8,2471.294,13.29,0.058,140.6
2023-07-06T04:31:03,42.805,6.029,0.039,-0.027,-0.004,100.0,101.0,101.0,13.3,1505.2,336.6,-0.8,1.8,2471.357,13.29,0.047,124.7
2023-07-06T04:34:03,42.805,6.029,0.049,-0.046,-0.015,101.0,100.0,101.0,13.4,1505.2,337.3,-0.8,1.8,2471.347,13.29,0.067,133.2
2023-07-06T04:37:03,42.805,6.029,0.027,-0.005,0.027,103.0,101.0,101.0,13.4,1505.2,340.4,-0.7,1.8,2471.301,13.29,0.027,100.5
2023-07-06T04:40:03,42.805,6.029,0.037,-0.016,0.012,101.0,102.0,101.0,13.4,1505.2,350.7,-0.7,1.8,2471.311,13.29,0.04,113.4
2023-07-06T04:43:03,42.805,6.029,0.037,-0.036,-0.015,102.0,101.0,101.0,13.3,1505.2,334.9,-0.8,1.8,2471.309,13.29,0.051,134.2
2023-07-06T04:46:03,42.805,6.029,0.041,-0.032,-0.013,101.0,102.0,101.0,13.3,1505.2,349.3,-0.8,1.8,2471.34,13.29,0.052,128.0
2023-07-06T04:49:03,42.805,6.029,0.047,-0.021,-0.044,101.0,102.0,101.0,13.4,1505.2,326.5,-0.8,1.8,2471.304,13.29,0.051,114.1
2023-07-06T04:52:03,42.805,6.029,0.03,-0.02,-0.012,102.0,101.0,101.0,13.4,1505.2,343.7,-0.8,1.8,2471.296,13.29,0.036,123.7
2023-07-06T04:55:03,42.805,6.029,0.073,-0.018,0.023,102.0,101.0,100.0,13.4,1505.2,333.4,-0.7,1.8,2471.308,13.29,0.075,103.8
2023-07-06T04:58:03,42.805,6.029,0.034,-0.045,-0.044,102.0,101.0,101.0,13.4,1505.2,335.5,-0.8,1.8,2471.313,13.29,0.056,142.9
2023-07-06T05:04:03,42.805,6.029,0.022,-0.013,-0.008,102.0,101.0,101.0,13.3,1505.2,343.4,-0.8,1.8,2471.396,13.28,0.025,120.6
2023-07-06T05:07:03,42.805,6.029,0.046,-0.049,-0.001,101.0,102.0,101.0,13.3,1505.2,350.5,-0.8,1.8,2471.427,13.28,0.067,136.8
2023-07-06T05:10:03,42.805,6.029,0.053,-0.02,-0.031,101.0,102.0,101.0,13.4,1505.2,324.2,-0.8,1.8,2471.346,13.28,0.056,110.7
2023-07-06T05:13:03,42.805,6.029,0.021,-0.032,-0.023,101.0,102.0,102.0,13.4,1505.2,347.9,-0.8,1.8,2471.38,13.28,0.038,146.7
2023-07-06T05:16:03,42.805,6.029,0.031,-0.013,0.039,102.0,102.0,101.0,13.3,1505.2,327.0,-0.8,1.8,2471.355,13.28,0.033,112.7
2023-07-06T05:19:03,42.805,6.029,0.051,-0.031,-0.004,102.0,102.0,100.0,13.3,1505.2,335.5,-0.8,1.8,2471.335,13.29,0.059,121.3
2023-07-06T05:22:03,42.805,6.029,0.07,-0.056,-0.023,102.0,102.0,101.0,13.3,1505.2,333.9,-0.8,1.8,2471.383,13.29,0.089,128.7
2023-07-06T05:25:03,42.805,6.029,0.028,-0.005,-0.001,101.0,102.0,101.0,13.4,1505.2,330.7,-0.8,1.8,2471.367,13.29,0.028,100.1
2023-07-06T05:28:03,42.805,6.029,0.036,-0.013,0.003,102.0,101.0,101.0,13.4,1505.2,324.0,-0.8,1.8,2471.352,13.29,0.038,109.9
2023-07-06T05:31:03,42.805,6.029,0.032,-0.015,-0.015,102.0,102.0,101.0,13.3,1505.2,329.8,-0.8,1.8,2471.335,13.29,0.035,115.1
2023-07-06T05:34:03,42.805,6.029,0.032,-0.021,-0.014,102.0,101.0,101.0,13.4,1505.2,330.3,-0.7,1.8,2471.348,13.29,0.038,123.3
2023-07-06T05:37:03,42.805,6.029,0.042,-0.015,-0.019,100.0,102.0,100.0,13.4,1505.2,323.8,-0.8,1.8,2471.348,13.29,0.044,109.6
2023-07-06T05:40:03,42.805,6.029,0.017,-0.031,-0.038,102.0,101.0,100.0,13.4,1505.2,335.2,-0.7,1.8,2471.368,13.29,0.035,151.3
2023-07-06T05:43:03,42.805,6.029,0.032,-0.006,0.006,103.0,101.0,101.0,13.4,1505.2,336.1,-0.7,1.8,2471.334,13.29,0.032,100.6
2023-07-06T05:46:03,42.805,6.029,0.034,-0.014,-0.009,102.0,102.0,102.0,13.4,1505.2,332.6,-0.8,1.8,2471.346,13.29,0.036,112.4
2023-07-06T05:49:03,42.805,6.029,0.048,-0.031,-0.013,101.0,101.0,101.0,13.3,1505.2,341.9,-0.7,1.8,2471.361,13.29,0.057,122.9
2023-07-06T05:52:03,42.805,6.029,0.032,-0.034,-0.042,102.0,102.0,100.0,13.4,1505.2,346.2,-0.8,1.8,2471.362,13.29,0.046,136.7
2023-07-06T05:55:03,42.805,6.029,0.022,-0.021,-0.037,101.0,103.0,101.0,13.4,1505.2,330.3,-0.8,1.8,2471.38,13.29,0.03,133.7
2023-07-06T05:58:03,42.805,6.029,0.04,-0.017,-0.028,103.0,101.0,101.0,13.4,1505.2,334.4,-0.8,1.8,2471.346,13.29,0.043,113.0
2023-07-06T06:04:03,42.805,6.029,0.06,-0.036,0.023,102.0,102.0,101.0,13.4,1505.2,339.5,-0.8,1.8,2471.396,13.28,0.069,121.0
2023-07-06T06:07:03,42.805,6.029,0.014,-0.001,0.006,100.0,101.0,101.0,13.4,1505.2,333.4,-0.8,1.8,2471.407,13.28,0.014,94.1
2023-07-06T06:10:03,42.805,6.029,0.038,-0.039,-0.062,101.0,101.0,101.0,13.4,1505.2,326.5,-0.8,1.8,2471.414,13.28,0.054,135.7
2023-07-06T06:13:03,42.805,6.029,0.02,-0.027,-0.013,101.0,101.0,101.0,13.4,1505.2,342.6,-0.8,1.8,2471.346,13.28,0.033,143.5
2023-07-06T06:16:03,42.805,6.029,0.019,-0.027,-0.016,101.0,101.0,101.0,13.4,1505.2,346.8,-0.8,1.8,2471.381,13.29,0.033,144.9
2023-07-06T06:19:03,42.805,6.029,0.026,-0.001,0.007,101.0,101.0,101.0,13.4,1505.2,327.0,-0.7,1.8,2471.371,13.29,0.026,92.2
2023-07-06T06:22:03,42.805,6.029,0.003,-0.011,-0.017,101.0,101.0,100.0,13.4,1505.2,334.4,-0.7,1.8,2471.384,13.29,0.011,164.7
2023-07-06T06:25:03,42.805,6.029,0.03,-0.026,-0.022,102.0,101.0,101.0,13.3,1505.2,345.7,-0.7,1.8,2471.39,13.29,0.039,130.9
2023-07-06T06:28:03,42.805,6.029,0.001,-0.001,-0.031,102.0,102.0,100.0,13.4,1505.2,331.5,-0.8,1.8,2471.405,13.29,0.001,135.0
2023-07-06T06:31:03,42.805,6.029,0.039,-0.031,-0.013,100.0,103.0,101.0,13.3,1505.2,340.2,-0.8,1.8,2471.378,13.29,0.049,128.5
2023-07-06T06:34:03,42.805,6.029,0.0,-0.001,0.016,103.0,100.0,101.0,13.4,1505.2,326.0,-0.8,1.8,2471.405,13.29,0.001,180.0
2023-07-06T06:37:03,42.805,6.029,0.039,-0.033,-0.022,102.0,101.0,101.0,13.3,1505.2,335.6,-0.7,1.8,2471.39,13.29,0.051,130.2
2023-07-06T06:40:03,42.805,6.029,0.042,-0.025,-0.032,102.0,101.0,101.0,13.4,1505.2,336.9,-0.8,1.8,2471.392,13.29,0.048,120.8
2023-07-06T06:43:03,42.805,6.029,0.009,-0.036,-0.018,101.0,101.0,101.0,13.4,1505.2,347.4,-0.7,1.8,2471.383,13.29,0.037,166.0
2023-07-06T06:46:03,42.805,6.029,0.007,-0.034,-0.031,102.0,100.0,101.0,13.4,1505.2,339.7,-0.7,1.8,2471.393,13.29,0.034,168.4
2023-07-06T06:49:03,42.805,6.029,0.007,-0.021,0.007,101.0,102.0,101.0,13.4,1505.2,340.7,-0.8,1.8,2471.364,13.29,0.022,161.6
2023-07-06T06:52:03,42.805,6.029,0.04,-0.029,-0.012,101.0,101.0,101.0,13.4,1505.2,349.1,-0.8,1.9,2471.387,13.29,0.049,125.9
2023-07-06T06:55:03,42.805,6.029,0.015,-0.009,-0.028,102.0,101.0,101.0,13.4,1505.2,342.1,-0.8,1.8,2471.423,13.29,0.017,121.0
2023-07-06T06:58:03,42.805,6.029,0.034,-0.05,-0.021,102.0,102.0,101.0,13.4,1505.2,333.4,-0.8,1.8,2471.403,13.29,0.06,145.8
2023-07-06T07:04:03,42.805,6.029,0.046,-0.04,-0.01,101.0,101.0,100.0,13.4,1505.2,336.1,-0.8,1.8,2471.444,13.28,0.06,131.0
2023-07-06T07:07:03,42.805,6.029,0.047,-0.022,-0.05,101.0,102.0,100.0,13.4,1505.2,322.2,-0.8,1.8,2471.467,13.28,0.051,115.1
2023-07-06T07:10:03,42.805,6.029,0.019,-0.004,-0.021,102.0,101.0,100.0,13.4,1505.2,333.8,-0.8,1.8,2471.44,13.28,0.019,101.9
2023-07-06T07:13:03,42.805,6.029,0.041,-0.021,-0.003,102.0,101.0,101.0,13.4,1505.2,338.3,-0.7,1.8,2471.41,13.28,0.046,117.1
2023-07-06T07:16:03,42.805,6.029,0.036,-0.021,0.002,103.0,102.0,101.0,13.3,1505.2,344.9,-0.8,1.8,2471.431,13.29,0.041,120.3
2023-07-06T07:19:03,42.805,6.029,0.011,-0.023,-0.037,102.0,102.0,100.0,13.4,1505.2,340.3,-0.8,1.8,2471.439,13.29,0.025,154.4
2023-07-06T07:22:03,42.805,6.029,0.021,-0.006,0.033,102.0,100.0,101.0,13.4,1505.2,328.4,-0.8,1.8,2471.409,13.29,0.021,105.9
2023-07-06T07:25:03,42.805,6.029,0.01,0.0,-0.021,102.0,101.0,101.0,13.4,1505.2,344.4,-0.8,1.8,2471.44,13.29,0.01,90.0
2023-07-06T07:28:03,42.805,6.029,0.006,-0.004,-0.03,101.0,102.0,101.0,13.4,1505.2,329.4,-0.8,1.8,2471.423,13.29,0.007,123.7
2023-07-06T07:31:03,42.805,6.029,0.053,-0.032,-0.007,102.0,101.0,101.0,13.4,1505.2,339.3,-0.8,1.8,2471.44,13.29,0.061,121.1
2023-07-06T07:34:03,42.805,6.029,0.031,0.004,-0.015,102.0,102.0,101.0,13.4,1505.2,325.4,-0.7,1.8,2471.449,13.29,0.031,82.7
2023-07-06T07:37:03,42.805,6.029,0.028,-0.02,-0.008,101.0,102.0,101.0,13.4,1505.2,338.8,-0.8,1.8,2471.433,13.29,0.034,125.5
2023-07-06T07:40:03,42.805,6.029,0.056,-0.023,-0.016,101.0,101.0,100.0,13.3,1505.2,330.6,-0.8,1.8,2471.458,13.29,0.06,112.3
2023-07-06T07:43:03,42.805,6.029,0.002,-0.022,-0.036,101.0,102.0,100.0,13.4,1505.2,327.4,-0.7,1.8,2471.429,13.29,0.022,174.8
2023-07-06T07:46:03,42.805,6.029,0.04,-0.017,-0.004,102.0,101.0,101.0,13.4,1505.2,325.3,-0.8,1.8,2471.394,13.29,0.043,113.0
2023-07-06T07:49:03,42.805,6.029,0.02,-0.02,-0.022,101.0,102.0,101.0,13.4,1505.2,332.1,-0.7,1.8,2471.407,13.29,0.028,135.0
2023-07-06T07:52:03,42.805,6.029,0.027,-0.005,0.013,101.0,101.0,101.0,13.4,1505.2,333.8,-0.8,1.8,2471.44,13.29,0.027,100.5
2023-07-06T07:55:03,42.805,6.029,0.034,-0.02,-0.033,102.0,101.0,100.0,13.4,1505.2,327.4,-0.8,1.8,2471.433,13.29,0.039,120.5
2023-07-06T07:58:03,42.805,6.029,0.046,-0.043,0.013,101.0,103.0,100.0,13.3,1505.2,343.3,-0.8,1.8,2471.435,13.29,0.062,133.1
2023-07-06T08:04:03,42.805,6.029,0.046,0.0,-0.03,101.0,101.0,101.0,13.3,1505.2,326.3,-0.7,1.8,2471.506,13.28,0.046,90.0
2023-07-06T08:07:03,42.805,6.029,0.038,-0.017,0.022,101.0,102.0,101.0,13.4,1505.2,351.7,-0.8,1.8,2471.484,13.28,0.041,114.1
2023-07-06T08:10:03,42.805,6.029,0.041,-0.034,-0.037,103.0,100.0,101.0,13.4,1505.2,338.5,-0.8,1.8,2471.468,13.28,0.053,129.7
2023-07-06T08:13:03,42.805,6.029,0.042,-0.011,-0.005,102.0,101.0,99.0,13.4,1505.2,342.9,-0.8,1.8,2471.49,13.28,0.043,104.7
2023-07-06T08:16:03,42.805,6.029,0.022,-0.024,-0.054,101.0,102.0,100.0,13.4,1505.2,329.7,-0.8,1.8,2471.473,13.29,0.032,137.5
2023-07-06T08:19:03,42.805,6.029,0.035,-0.012,-0.006,101.0,100.0,102.0,13.4,1505.2,337.4,-0.7,1.8,2471.447,13.29,0.037,108.9
2023-07-06T08:22:03,42.805,6.029,0.037,-0.018,-0.044,100.0,101.0,101.0,13.3,1505.2,334.6,-0.8,1.8,2471.436,13.29,0.041,115.9
2023-07-06T08:25:03,42.805,6.029,0.041,-0.015,-0.034,101.0,102.0,101.0,13.4,1505.2,322.9,-0.8,1.8,2471.477,13.29,0.043,110.1
2023-07-06T08:28:03,42.805,6.029,0.033,-0.004,-0.006,101.0,102.0,100.0,13.4,1505.2,327.9,-0.7,1.8,2471.478,13.29,0.033,96.9
2023-07-06T08:31:03,42.805,6.029,0.05,-0.021,-0.016,100.0,102.0,101.0,13.3,1505.2,328.5,-0.7,1.8,2471.443,13.29,0.054,112.8
2023-07-06T08:34:03,42.805,6.029,0.032,-0.001,0.011,106.0,101.0,100.0,13.3,1505.2,337.7,-0.7,1.8,2471.459,13.29,0.032,91.8
2023-07-06T08:37:03,42.805,6.029,0.049,-0.03,-0.025,101.0,102.0,101.0,13.3,1505.2,332.5,-0.8,1.8,2471.426,13.29,0.057,121.5
2023-07-06T08:40:03,42.805,6.029,0.052,0.0,-0.003,102.0,101.0,101.0,13.4,1505.2,321.7,-0.8,1.8,2471.454,13.29,0.052,90.0
2023-07-06T08:43:03,42.805,6.029,0.038,0.0,-0.019,101.0,103.0,100.0,13.4,1505.2,336.6,-0.8,1.8,2471.432,13.29,0.038,90.0
2023-07-06T08:46:03,42.805,6.029,0.02,-0.02,-0.029,101.0,102.0,101.0,13.4,1505.2,348.9,-0.8,1.8,2471.452,13.29,0.028,135.0
2023-07-06T08:49:03,42.805,6.029,0.012,0.015,0.01,103.0,101.0,100.0,13.3,1505.2,331.8,-0.8,1.8,2471.451,13.29,0.019,38.7
2023-07-06T08:52:03,42.805,6.029,0.046,-0.008,-0.023,102.0,100.0,101.0,13.3,1505.2,329.5,-0.8,1.8,2471.397,13.29,0.046,99.9
2023-07-06T08:55:03,42.805,6.029,0.034,-0.017,-0.004,101.0,102.0,101.0,13.3,1505.2,321.1,-0.8,1.8,2471.428,13.29,0.038,116.6
2023-07-06T08:58:03,42.805,6.029,0.028,-0.004,-0.028,101.0,102.0,100.0,13.4,1505.2,340.8,-0.8,1.8,2471.435,13.29,0.028,98.1
2023-07-06T09:04:03,42.805,6.029,0.031,0.0,-0.012,102.0,102.0,101.0,13.3,1505.2,329.0,-0.7,1.8,2471.483,13.28,0.03,90.0
2023-07-06T09:07:03,42.805,6.029,0.024,-0.018,-0.019,101.0,101.0,100.0,13.4,1505.2,347.6,-0.7,1.8,2471.432,13.28,0.03,126.9
2023-07-06T09:10:03,42.805,6.029,0.025,-0.002,-0.014,102.0,101.0,100.0,13.3,1505.2,325.4,-0.8,1.8,2471.466,13.28,0.025,94.6
2023-07-06T09:13:03,42.805,6.029,0.037,-0.008,-0.01,101.0,101.0,101.0,13.4,1505.2,344.8,-0.7,1.8,2471.455,13.28,0.037,102.2
2023-07-06T09:16:03,42.805,6.029,0.051,-0.009,-0.003,102.0,102.0,100.0,13.4,1505.2,347.1,-0.8,1.8,2471.457,13.29,0.051,100.0
2023-07-06T09:19:03,42.805,6.029,0.038,0.007,-0.036,101.0,102.0,100.0,13.4,1505.2,329.0,-0.8,1.9,2471.47,13.29,0.038,79.6
2023-07-06T09:22:03,42.805,6.029,0.041,-0.003,-0.029,100.0,101.0,101.0,13.3,1505.2,331.2,-0.8,1.8,2471.449,13.29,0.041,94.2
2023-07-06T09:25:03,42.805,6.029,0.01,0.003,-0.047,102.0,102.0,100.0,13.3,1505.2,349.1,-0.8,1.8,2471.456,13.29,0.01,73.3
2023-07-06T09:28:03,42.805,6.029,0.051,-0.037,-0.011,101.0,101.0,101.0,13.4,1505.2,335.6,-0.8,1.8,2471.478,13.29,0.063,126.0
2023-07-06T09:31:03,42.805,6.029,0.04,-0.014,-0.029,102.0,100.0,101.0,13.4,1505.2,333.9,-0.8,1.8,2471.451,13.29,0.042,109.3
2023-07-06T09:34:03,42.805,6.029,0.046,-0.028,-0.017,101.0,101.0,101.0,13.4,1505.2,341.9,-0.7,1.8,2471.438,13.29,0.053,121.3
2023-07-06T09:37:03,42.805,6.029,0.034,-0.029,-0.026,101.0,102.0,100.0,13.3,1505.2,339.6,-0.8,1.8,2471.457,13.29,0.044,130.5
2023-07-06T09:40:03,42.805,6.029,0.029,0.002,-0.026,102.0,100.0,101.0,13.4,1505.2,343.3,-0.8,1.8,2471.454,13.29,0.029,86.1
2023-07-06T09:43:03,42.805,6.029,0.013,-0.027,-0.021,100.0,101.0,100.0,13.4,1505.2,341.9,-0.8,1.8,2471.423,13.29,0.029,154.3
2023-07-06T09:46:03,42.805,6.029,0.045,-0.01,-0.024,101.0,102.0,99.0,13.4,1505.2,331.6,-0.7,1.8,2471.464,13.29,0.046,102.5
2023-07-06T09:49:03,42.805,6.029,0.01,-0.005,-0.017,102.0,101.0,100.0,13.4,1505.2,341.5,-0.8,1.8,2471.476,13.29,0.011,116.6
2023-07-06T09:52:03,42.805,6.029,0.03,-0.017,-0.013,102.0,102.0,100.0,13.3,1505.2,333.9,-0.8,1.8,2471.446,13.29,0.034,119.5
2023-07-06T09:55:03,42.805,6.029,0.05,-0.006,-0.036,100.0,101.0,101.0,13.3,1505.2,329.3,-0.8,1.8,2471.435,13.29,0.05,96.8